Location: Acton
(51.4942°N, 0.2232°W)
Time: 22:44:56
(UTC+00:00)

Lacrosse 4 Rocket - Pass Details

Date: 18 September 2020
Orbit: 543 x 616 km, 68.0° (Epoch: 31 October)

Event Time Altitude Azimuth Distance (km) Brightness Sun altitude
Rises 19:18:06 0° 326° (NNW) 2,717 5.7 -11.6°
Reaches altitude 10° 19:22:05 10° 5° (N) 1,821 4.1 -12.2°
Maximum altitude 19:23:07 11° 20° (NNE) 1,771 3.9 -12.4°
Drops below altitude 10° 19:24:09 10° 35° (NE) 1,822 3.8 -12.5°
Enters shadow 19:25:51 - 56° (NE) 2,103 3.9 -12.8°
